Location: Burla
(50.9568°N, 10.4983°E)
Time: 22:15:15
(UTC+00:00)

Cosmos 2278 Rocket - Pass Details

Date: 18 January 2026
Orbit: 839 x 846 km, 71.0° (Epoch: 17 February)

Event Time Altitude Azimuth Distance (km) Brightness Sun altitude
Exits shadow 05:56:17 - 239° (WSW) 3,287 4.9 -11.6°
Reaches altitude 10° 05:58:39 10° 247° (WSW) 2,457 4.2 -11.2°
Maximum altitude 06:03:48 35° 313° (NW) 1,328 2.8 -10.5°
Drops below altitude 10° 06:08:59 10° 19° (NNE) 2,473 4.6 -9.7°
Sets 06:11:40 0° 28° (NNE) 3,413 5.5 -9.3°
